Time,TemperatureF,DewpointF,PressureIn,WindDirection,WindDirectionDegrees,WindSpeedMPH,WindSpeedGustMPH,Humidity,HourlyPrecipIn,Conditions,Clouds,dailyrainin,SolarRadiationWatts/m^2,SoftwareType,DateUTC
2013-05-10 00:03:00,52.0,47.0,-100.00,SSW,195,0.0,3.0,84,0.00,,,0.08,0.000000,,2013-05-10 04:03:00,
2013-05-10 00:33:00,50.0,47.0,-100.00,SSW,203,0.0,0.0,90,0.00,,,0.08,0.000000,,2013-05-10 04:33:00,
2013-05-10 00:43:00,50.0,47.0,-100.00,SSW,203,0.0,0.0,90,0.00,,,0.08,0.000000,,2013-05-10 04:43:00,
2013-05-10 00:53:00,50.0,47.0,-100.00,SSW,203,0.0,0.0,90,0.00,,,0.08,0.000000,,2013-05-10 04:53:00,
2013-05-10 01:02:00,50.0,47.0,-100.00,SSW,203,0.0,0.0,90,0.00,,,0.08,0.000000,,2013-05-10 05:02:00,
2013-05-10 01:32:00,49.0,47.0,-100.00,SW,232,0.0,0.0,93,0.00,,,0.08,0.000000,,2013-05-10 05:32:00,
2013-05-10 01:42:00,49.0,47.0,-100.00,SW,232,0.0,0.0,93,0.00,,,0.08,0.000000,,2013-05-10 05:42:00,
2013-05-10 01:52:00,49.0,47.0,-100.00,SW,232,0.0,0.0,93,0.00,,,0.08,0.000000,,2013-05-10 05:52:00,
2013-05-10 02:02:00,49.0,47.0,-100.00,SW,232,0.0,0.0,93,0.00,,,0.08,0.000000,,2013-05-10 06:02:00,
2013-05-10 02:32:00,48.0,47.0,-100.00,South,187,0.0,0.0,95,0.00,,,0.08,0.000000,,2013-05-10 06:32:00,
2013-05-10 02:42:00,48.0,47.0,-100.00,South,187,0.0,0.0,95,0.00,,,0.08,0.000000,,2013-05-10 06:42:00,
2013-05-10 02:52:00,48.0,47.0,-100.00,South,187,0.0,0.0,95,0.00,,,0.08,0.000000,,2013-05-10 06:52:00,
2013-05-10 03:02:00,48.0,47.0,-100.00,South,187,0.0,0.0,95,0.00,,,0.08,0.000000,,2013-05-10 07:02:00,
2013-05-10 04:32:00,46.0,45.0,-100.00,South,179,0.0,0.0,96,-99.99,,,0.06,0.000000,,2013-05-10 08:32:00,
2013-05-10 04:42:00,46.0,45.0,-100.00,South,179,0.0,0.0,96,-99.99,,,0.06,0.000000,,2013-05-10 08:42:00,
2013-05-10 04:52:00,46.0,45.0,-100.00,South,179,0.0,0.0,96,-99.99,,,0.06,0.000000,,2013-05-10 08:52:00,
2013-05-10 05:02:00,46.0,45.0,-100.00,South,179,0.0,0.0,96,-99.99,,,0.06,0.000000,,2013-05-10 09:02:00,
2013-05-10 05:33:00,46.0,45.0,-100.00,SSW,196,0.0,0.0,97,0.00,,,0.03,0.000000,,2013-05-10 09:33:00,
2013-05-10 05:43:00,46.0,45.0,-100.00,SSW,196,0.0,0.0,97,0.00,,,0.03,0.000000,,2013-05-10 09:43:00,
2013-05-10 05:53:00,46.0,45.0,-100.00,SSW,196,0.0,0.0,97,0.00,,,0.03,0.000000,,2013-05-10 09:53:00,
2013-05-10 06:03:00,46.0,45.0,-100.00,SSW,196,0.0,0.0,97,0.00,,,0.03,0.000000,,2013-05-10 10:03:00,
2013-05-10 06:33:00,48.0,47.0,-100.00,NE,36,0.0,2.0,96,0.00,,,0.03,1.000000,,2013-05-10 10:33:00,
2013-05-10 06:42:00,48.0,47.0,-100.00,NE,36,0.0,2.0,96,0.00,,,0.03,1.000000,,2013-05-10 10:42:00,
2013-05-10 06:53:00,48.0,47.0,-100.00,NE,36,0.0,2.0,96,0.00,,,0.03,1.000000,,2013-05-10 10:53:00,
2013-05-10 07:02:00,48.0,47.0,-100.00,NE,36,0.0,2.0,96,0.00,,,0.03,1.000000,,2013-05-10 11:02:00,
2013-05-10 10:32:00,58.0,53.0,-100.00,South,185,4.0,9.0,83,-99.99,,,0.01,134.000000,,2013-05-10 14:32:00,
2013-05-10 10:42:00,58.0,53.0,-100.00,South,185,4.0,9.0,83,-99.99,,,0.01,134.000000,,2013-05-10 14:42:00,
2013-05-10 10:52:00,58.0,53.0,-100.00,South,185,4.0,9.0,83,-99.99,,,0.01,134.000000,,2013-05-10 14:52:00,
2013-05-10 11:02:00,58.0,53.0,-100.00,South,185,4.0,9.0,83,-99.99,,,0.01,134.000000,,2013-05-10 15:02:00,
2013-05-10 12:33:00,72.0,56.0,-100.00,SW,231,5.0,12.0,57,-99.99,,,0.00,741.000000,,2013-05-10 16:33:00,
2013-05-10 12:43:00,72.0,56.0,-100.00,SW,231,5.0,12.0,57,-99.99,,,0.00,741.000000,,2013-05-10 16:43:00,
2013-05-10 12:53:00,72.0,56.0,-100.00,SW,231,5.0,12.0,57,-99.99,,,0.00,741.000000,,2013-05-10 16:53:00,
2013-05-10 13:02:00,72.0,56.0,-100.00,SW,231,5.0,12.0,57,-99.99,,,0.00,741.000000,,2013-05-10 17:02:00,
2013-05-10 13:07:00,-999.0,-99.9,-100.00,SSW,198,7.0,15.0,56,0.00,,,0.00,590.000000,,2013-05-10 17:07:00,
2013-05-10 13:32:00,71.0,54.0,-100.00,SSW,198,7.0,15.0,56,0.00,,,0.00,590.000000,,2013-05-10 17:32:00,
2013-05-10 13:42:00,71.0,54.0,-100.00,SSW,198,7.0,15.0,56,0.00,,,0.00,590.000000,,2013-05-10 17:42:00,
2013-05-10 13:52:00,71.0,54.0,-100.00,SSW,198,7.0,15.0,56,0.00,,,0.00,590.000000,,2013-05-10 17:52:00,
2013-05-10 14:35:00,72.0,56.0,-100.00,South,181,5.0,16.0,57,0.00,,,0.00,449.000000,,2013-05-10 18:35:00,
2013-05-10 14:43:00,72.0,56.0,-100.00,South,181,5.0,16.0,57,0.00,,,0.00,449.000000,,2013-05-10 18:43:00,
2013-05-10 14:54:00,72.0,56.0,-100.00,South,181,5.0,16.0,57,0.00,,,0.00,449.000000,,2013-05-10 18:54:00,
2013-05-10 15:02:00,72.0,56.0,-100.00,South,181,5.0,16.0,57,0.00,,,0.00,449.000000,,2013-05-10 19:02:00,
2013-05-10 15:32:00,74.0,57.0,-100.00,South,181,8.0,20.0,55,0.00,,,-99.99,540.000000,,2013-05-10 19:32:00,
2013-05-10 15:42:00,74.0,57.0,-100.00,South,181,8.0,20.0,55,0.00,,,-99.99,540.000000,,2013-05-10 19:42:00,
2013-05-10 15:52:00,74.0,57.0,-100.00,South,181,8.0,20.0,55,0.00,,,-99.99,540.000000,,2013-05-10 19:52:00,
2013-05-10 16:02:00,74.0,57.0,-100.00,South,181,8.0,20.0,55,0.00,,,-99.99,540.000000,,2013-05-10 20:02:00,
2013-05-10 16:32:00,73.0,56.0,-100.00,SSW,200,6.0,17.0,56,0.00,,,0.00,366.000000,,2013-05-10 20:32:00,
2013-05-10 16:42:00,73.0,56.0,-100.00,SSW,200,6.0,17.0,56,0.00,,,0.00,366.000000,,2013-05-10 20:42:00,
2013-05-10 16:52:00,73.0,56.0,-100.00,SSW,200,6.0,17.0,56,0.00,,,0.00,366.000000,,2013-05-10 20:52:00,
2013-05-10 17:02:00,73.0,56.0,-100.00,SSW,200,6.0,17.0,56,0.00,,,0.00,366.000000,,2013-05-10 21:02:00,
2013-05-10 18:32:00,62.0,61.0,-100.00,NNW,329,5.0,11.0,96,-99.99,,,0.36,110.000000,,2013-05-10 22:32:00,
2013-05-10 18:42:00,62.0,61.0,-100.00,NNW,329,5.0,11.0,96,-99.99,,,0.36,110.000000,,2013-05-10 22:42:00,
2013-05-10 18:53:00,62.0,61.0,-100.00,NNW,329,5.0,11.0,96,-99.99,,,0.36,110.000000,,2013-05-10 22:53:00,
2013-05-10 19:02:00,62.0,61.0,-100.00,NNW,329,5.0,11.0,96,-99.99,,,0.36,110.000000,,2013-05-10 23:02:00,
2013-05-10 19:33:00,60.0,58.0,-100.00,North,2,2.0,18.0,92,0.17,,,0.53,19.000000,,2013-05-10 23:33:00,
2013-05-10 19:42:00,60.0,58.0,-100.00,North,2,2.0,18.0,92,0.17,,,0.53,19.000000,,2013-05-10 23:42:00,
2013-05-10 19:52:00,60.0,58.0,-100.00,North,2,2.0,18.0,92,0.17,,,0.53,19.000000,,2013-05-10 23:52:00,
2013-05-10 20:02:00,60.0,58.0,-100.00,North,2,2.0,18.0,92,0.17,,,0.53,19.000000,,2013-05-11 00:02:00,
2013-05-10 21:32:00,58.0,57.0,-100.00,South,185,5.0,10.0,97,-99.99,,,0.69,1.000000,,2013-05-11 01:32:00,
2013-05-10 21:42:00,58.0,57.0,-100.00,South,185,5.0,10.0,97,-99.99,,,0.69,1.000000,,2013-05-11 01:42:00,
2013-05-10 21:52:00,58.0,57.0,-100.00,South,185,5.0,10.0,97,-99.99,,,0.69,1.000000,,2013-05-11 01:52:00,
2013-05-10 22:02:00,58.0,57.0,-100.00,South,185,5.0,10.0,97,-99.99,,,0.69,1.000000,,2013-05-11 02:02:00,
2013-05-10 22:32:00,58.0,57.0,-100.00,SSE,166,4.0,16.0,96,0.02,,,0.71,0.000000,,2013-05-11 02:32:00,
2013-05-10 22:42:00,58.0,57.0,-100.00,SSE,166,4.0,16.0,96,0.02,,,0.71,0.000000,,2013-05-11 02:42:00,
2013-05-10 22:52:00,58.0,57.0,-100.00,SSE,166,4.0,16.0,96,0.02,,,0.71,0.000000,,2013-05-11 02:52:00,
2013-05-10 23:01:00,58.0,57.0,-100.00,SSE,166,4.0,16.0,96,0.02,,,0.71,0.000000,,2013-05-11 03:01:00,
2013-05-10 23:33:00,57.0,56.0,-100.00,SSE,163,1.0,8.0,96,0.04,,,0.75,0.000000,,2013-05-11 03:33:00,
2013-05-10 23:43:00,57.0,56.0,-100.00,SSE,163,1.0,8.0,96,0.04,,,0.75,0.000000,,2013-05-11 03:43:00,
2013-05-10 23:53:00,57.0,56.0,-100.00,SSE,163,1.0,8.0,96,0.04,,,0.75,0.000000,,2013-05-11 03:53:00,